Voltar ao catálogo

ONEWEB-0411

AtivoComunicaçõesPO
NORAD 51623·PAYLOAD·🇬🇧 United Kingdom

Lançado Feb 10, 2022 de Guiana Space Centre

Loading…

Próximas Passagens (próximas 24 horas)

TLE

AtualizadoSource: CelesTrak SupGP

Época: Sep 14, 2026, 14:29 UTC

1 51623C 22012B   26257.60396250 -.00000266  00000+0 -76414-3 0  2574
2 51623  87.8896  18.4690 0001358  90.0723  19.8879 13.10365409    16

Acompanhe ONEWEB-0411 em tempo real com AllMySat

Download on the App Store